QPF
0.14 0.18 0.22 0.20 0.17 0.15 0.17 0.18 0.24 0.25 0.24 0.20 0.16 0.18 0.18 0.15 0.13 0.11 0.08 0.08 0.09 0.08 0.07 0.07 0.05 0.04 0.04 0.04 0.03 0.03 0.02 0.01 0.00 0.00 0.00 0.00 0.00 0.00 0.00 0.00 0.00 0.00 0.00
0.09 0.14 0.21 0.18 0.13 0.12 0.13 0.16 0.20 0.23 0.22 0.20 0.18 0.17 0.18 0.18 0.15 0.12 0.09 0.08 0.08 0.07 0.05 0.06 0.06 0.04 0.03 0.04 0.04 0.03 0.03 0.02 0.01 0.01 0.00 0.00 0.00 0.00 0.00 0.00 0.00 0.00 0.00
0.07 0.10 0.16 0.15 0.12 0.11 0.13 0.14 0.14 0.19 0.19 0.17 0.19 0.22 0.22 0.21 0.22 0.19 0.17 0.13 0.09 0.08 0.06 0.05 0.06 0.06 0.04 0.04 0.04 0.04 0.03 0.03 0.02 0.01 0.01 0.01 0.00 0.00 0.00 0.00 0.00 0.00 0.00
0.06 0.09 0.11 0.11 0.12 0.11 0.11 0.14 0.15 0.20 0.20 0.15 0.14 0.16 0.20 0.21 0.19 0.17 0.17 0.16 0.12 0.09 0.09 0.08 0.07 0.07 0.08 0.06 0.05 0.04 0.04 0.04 0.03 0.03 0.02 0.01 0.01 0.01 0.00 0.00 0.00 0.00 0.00
0.08 0.09 0.07 0.09 0.10 0.10 0.09 0.08 0.09 0.17 0.24 0.22 0.17 0.16 0.16 0.17 0.16 0.15 0.17 0.16 0.13 0.10 0.10 0.10 0.10 0.10 0.09 0.09 0.08 0.06 0.06 0.05 0.04 0.03 0.03 0.03 0.02 0.01 0.01 0.01 0.00 0.00 0.01
0.07 0.08 0.07 0.06 0.07 0.07 0.05 0.05 0.06 0.08 0.15 0.20 0.19 0.17 0.16 0.18 0.17 0.15 0.15 0.17 0.17 0.16 0.13 0.10 0.10 0.10 0.10 0.10 0.10 0.09 0.07 0.07 0.06 0.05 0.03 0.03 0.02 0.02 0.02 0.02 0.01 0.01 0.01
0.07 0.07 0.07 0.06 0.05 0.07 0.06 0.06 0.07 0.07 0.09 0.13 0.16 0.15 0.14 0.16 0.16 0.15 0.14 0.17 0.19 0.19 0.16 0.12 0.11 0.12 0.11 0.11 0.11 0.11 0.08 0.07 0.07 0.06 0.04 0.04 0.03 0.02 0.02 0.02 0.02 0.01 0.01
0.09 0.08 0.07 0.07 0.06 0.06 0.06 0.07 0.10 0.10 0.10 0.11 0.13 0.16 0.14 0.14 0.14 0.13 0.13 0.14 0.16 0.16 0.15 0.13 0.11 0.11 0.13 0.13 0.11 0.12 0.10 0.08 0.07 0.06 0.05 0.05 0.05 0.04 0.04 0.04 0.04 0.04 0.03
0.11 0.10 0.08 0.07 0.07 0.06 0.05 0.07 0.10 0.11 0.14 0.15 0.15 0.19 0.19 0.15 0.13 0.11 0.11 0.12 0.14 0.16 0.16 0.14 0.12 0.12 0.12 0.14 0.14 0.14 0.14 0.12 0.11 0.09 0.08 0.07 0.06 0.06 0.07 0.08 0.08 0.09 0.08
0.13 0.12 0.10 0.09 0.09 0.07 0.05 0.07 0.12 0.10 0.11 0.14 0.14 0.16 0.18 0.17 0.16 0.12 0.11 0.12 0.13 0.16 0.18 0.17 0.13 0.12 0.13 0.14 0.14 0.14 0.14 0.14 0.13 0.12 0.11 0.10 0.09 0.09 0.09 0.09 0.09 0.08 0.07
0.16 0.15 0.16 0.16 0.13 0.09 0.08 0.09 0.10 0.12 0.13 0.11 0.11 0.12 0.13 0.13 0.15 0.17 0.15 0.14 0.14 0.15 0.16 0.17 0.15 0.13 0.13 0.14 0.14 0.13 0.13 0.13 0.11 0.10 0.10 0.09 0.08 0.07 0.07 0.06 0.06 0.06 0.06
0.15 0.17 0.22 0.22 0.19 0.14 0.12 0.12 0.13 0.14 0.16 0.14 0.11 0.12 0.14 0.14 0.14 0.17 0.20 0.19 0.20 0.18 0.16 0.16 0.15 0.13 0.13 0.13 0.13 0.11 0.11 0.12 0.12 0.10 0.10 0.10 0.09 0.07 0.06 0.05 0.05 0.05 0.06
0.13 0.14 0.17 0.21 0.20 0.18 0.18 0.17 0.17 0.16 0.15 0.15 0.14 0.13 0.13 0.15 0.15 0.17 0.20 0.18 0.20 0.21 0.20 0.20 0.18 0.15 0.15 0.13 0.11 0.10 0.09 0.08 0.09 0.09 0.10 0.10 0.10 0.10 0.09 0.07 0.06 0.06 0.06
0.11 0.11 0.13 0.14 0.16 0.17 0.17 0.16 0.15 0.14 0.15 0.15 0.16 0.16 0.14 0.13 0.15 0.18 0.18 0.17 0.18 0.18 0.18 0.19 0.21 0.18 0.17 0.16 0.13 0.12 0.10 0.09 0.08 0.08 0.08 0.09 0.09 0.10 0.10 0.10 0.08 0.07 0.07
0.09 0.11 0.11 0.10 0.10 0.11 0.11 0.13 0.13 0.14 0.14 0.14 0.18 0.17 0.13 0.12 0.15 0.18 0.17 0.17 0.17 0.17 0.15 0.15 0.17 0.18 0.17 0.18 0.17 0.14 0.13 0.12 0.11 0.10 0.09 0.09 0.10 0.11 0.11 0.11 0.10 0.09 0.08
0.05 0.05 0.07 0.08 0.07 0.07 0.07 0.08 0.09 0.09 0.08 0.08 0.11 0.12 0.10 0.09 0.11 0.13 0.14 0.13 0.14 0.14 0.13 0.13 0.14 0.16 0.15 0.16 0.19 0.17 0.13 0.11 0.10 0.11 0.11 0.11 0.12 0.13 0.13 0.12 0.12 0.12 0.10
0.02 0.03 0.04 0.05 0.06 0.06 0.05 0.05 0.05 0.06 0.07 0.06 0.07 0.09 0.08 0.07 0.08 0.08 0.09 0.10 0.11 0.13 0.14 0.13 0.13 0.13 0.13 0.13 0.14 0.15 0.14 0.12 0.11 0.11 0.11 0.11 0.11 0.12 0.13 0.15 0.16 0.15 0.14
0.02 0.02 0.03 0.04 0.04 0.05 0.04 0.04 0.05 0.06 0.06 0.06 0.06 0.06 0.06 0.06 0.06 0.05 0.06 0.08 0.09 0.11 0.14 0.15 0.15 0.15 0.15 0.15 0.15 0.16 0.15 0.13 0.13 0.13 0.12 0.12 0.12 0.12 0.12 0.13 0.15 0.15 0.15
0.01 0.02 0.03 0.04 0.04 0.04 0.03 0.03 0.04 0.04 0.04 0.05 0.05 0.04 0.04 0.04 0.04 0.04 0.04 0.05 0.07 0.09 0.13 0.15 0.14 0.15 0.15 0.17 0.16 0.17 0.17 0.17 0.15 0.13 0.13 0.12 0.12 0.13 0.13 0.12 0.12 0.12 0.13
0.01 0.02 0.02 0.02 0.03 0.03 0.02 0.02 0.02 0.02 0.03 0.04 0.03 0.03 0.03 0.03 0.03 0.03 0.04 0.04 0.05 0.06 0.10 0.14 0.14 0.15 0.15 0.16 0.16 0.17 0.16 0.16 0.15 0.14 0.14 0.15 0.14 0.14 0.14 0.12 0.12 0.13 0.13
0.01 0.01 0.02 0.02 0.02 0.01 0.01 0.01 0.01 0.01 0.01 0.02 0.02 0.02 0.02 0.02 0.02 0.03 0.04 0.05 0.05 0.06 0.10 0.12 0.13 0.14 0.15 0.16 0.16 0.17 0.17 0.15 0.15 0.15 0.14 0.15 0.17 0.16 0.16 0.14 0.12 0.12 0.13
0.01 0.01 0.01 0.01 0.01 0.01 0.00 0.00 0.01 0.01 0.01 0.01 0.01 0.02 0.02 0.02 0.03 0.03 0.05 0.06 0.07 0.07 0.10 0.12 0.12 0.13 0.14 0.16 0.18 0.17 0.18 0.18 0.17 0.17 0.15 0.15 0.16 0.15 0.15 0.14 0.14 0.12 0.11
0.01 0.01 0.01 0.01 0.01 0.01 0.01 0.01 0.00 0.01 0.00 0.00 0.01 0.02 0.03 0.03 0.04 0.05 0.05 0.07 0.09 0.10 0.10 0.11 0.12 0.11 0.12 0.14 0.18 0.18 0.17 0.17 0.16 0.15 0.16 0.16 0.15 0.14 0.14 0.14 0.13 0.11 0.10
0.00 0.00 0.00 0.01 0.01 0.01 0.01 0.01 0.01 0.00 0.00 0.01 0.01 0.03 0.03 0.03 0.03 0.04 0.06 0.08 0.09 0.09 0.10 0.11 0.10 0.10 0.11 0.11 0.13 0.15 0.16 0.17 0.15 0.15 0.16 0.16 0.15 0.14 0.14 0.15 0.13 0.11 0.09
0.00 0.00 0.00 0.01 0.01 0.01 0.01 0.01 0.01 0.01 0.01 0.01 0.02 0.02 0.03 0.03 0.03 0.04 0.05 0.07 0.07 0.08 0.08 0.08 0.08 0.08 0.09 0.10 0.11 0.12 0.12 0.14 0.15 0.14 0.14 0.15 0.15 0.14 0.13 0.13 0.13 0.13 0.11
0.00 0.00 0.00 0.00 0.01 0.02 0.02 0.01 0.01 0.02 0.01 0.01 0.02 0.02 0.02 0.02 0.04 0.04 0.04 0.05 0.06 0.07 0.09 0.09 0.07 0.07 0.07 0.08 0.09 0.10 0.11 0.13 0.15 0.13 0.13 0.12 0.12 0.12 0.13 0.13 0.13 0.13 0.12
MSLP
1007.06 1006.39 1005.79 1005.29 1004.93 1004.73 1004.70 1004.81 1005.03 1005.29 1005.54 1005.72 1005.81 1005.81 1005.74 1005.65 1005.62 1005.71 1005.98 1006.47 1007.20 1008.14 1009.24 1010.47 1011.73 1012.98 1014.16 1015.24 1016.20 1017.03 1017.76 1018.39 1018.94 1019.43 1019.87 1020.26 1020.61 1020.91 1021.17 1021.39 1021.58 1021.74 1021.88
1006.58 1005.90 1005.26 1004.71 1004.30 1004.03 1003.94 1004.01 1004.20 1004.46 1004.74 1004.97 1005.12 1005.18 1005.17 1005.13 1005.12 1005.23 1005.50 1005.99 1006.70 1007.63 1008.74 1009.95 1011.21 1012.46 1013.62 1014.69 1015.63 1016.46 1017.18 1017.82 1018.40 1018.94 1019.45 1019.92 1020.36 1020.76 1021.11 1021.41 1021.66 1021.86 1022.03
1006.26 1005.56 1004.89 1004.29 1003.81 1003.46 1003.29 1003.28 1003.42 1003.65 1003.92 1004.17 1004.37 1004.49 1004.54 1004.57 1004.62 1004.78 1005.09 1005.59 1006.32 1007.24 1008.33 1009.53 1010.76 1011.96 1013.09 1014.11 1015.01 1015.80 1016.51 1017.15 1017.76 1018.35 1018.92 1019.48 1020.01 1020.50 1020.95 1021.33 1021.65 1021.92 1022.13
1006.21 1005.50 1004.79 1004.13 1003.55 1003.10 1002.81 1002.69 1002.73 1002.89 1003.11 1003.35 1003.56 1003.73 1003.85 1003.94 1004.08 1004.30 1004.67 1005.22 1005.97 1006.90 1007.98 1009.14 1010.34 1011.49 1012.56 1013.52 1014.37 1015.13 1015.81 1016.45 1017.07 1017.70 1018.32 1018.94 1019.55 1020.12 1020.64 1021.10 1021.50 1021.82 1022.10
1006.53 1005.78 1005.03 1004.28 1003.59 1003.00 1002.55 1002.27 1002.17 1002.20 1002.33 1002.51 1002.71 1002.90 1003.06 1003.23 1003.45 1003.75 1004.20 1004.81 1005.60 1006.55 1007.62 1008.77 1009.92 1011.02 1012.04 1012.95 1013.76 1014.48 1015.14 1015.77 1016.39 1017.03 1017.68 1018.34 1018.99 1019.61 1020.18 1020.70 1021.15 1021.54 1021.88
1007.22 1006.45 1005.62 1004.77 1003.93 1003.17 1002.53 1002.05 1001.75 1001.62 1001.61 1001.70 1001.84 1002.02 1002.22 1002.45 1002.74 1003.13 1003.66 1004.34 1005.18 1006.16 1007.24 1008.37 1009.50 1010.56 1011.54 1012.42 1013.19 1013.89 1014.53 1015.15 1015.77 1016.40 1017.05 1017.71 1018.36 1018.99 1019.58 1020.13 1020.62 1021.08 1021.49
1008.26 1007.45 1006.53 1005.55 1004.55 1003.59 1002.74 1002.03 1001.51 1001.18 1001.01 1000.97 1001.03 1001.17 1001.37 1001.64 1002.00 1002.47 1003.08 1003.83 1004.72 1005.74 1006.83 1007.96 1009.07 1010.12 1011.08 1011.94 1012.70 1013.38 1014.01 1014.62 1015.22 1015.83 1016.45 1017.08 1017.69 1018.29 1018.87 1019.43 1019.96 1020.47 1020.96
1009.52 1008.66 1007.66 1006.54 1005.37 1004.22 1003.14 1002.22 1001.48 1000.94 1000.58 1000.41 1000.37 1000.46 1000.65 1000.94 1001.34 1001.87 1002.54 1003.34 1004.28 1005.32 1006.43 1007.56 1008.67 1009.71 1010.66 1011.52 1012.28 1012.97 1013.60 1014.20 1014.78 1015.35 1015.92 1016.48 1017.04 1017.58 1018.13 1018.67 1019.22 1019.78 1020.35
1010.86 1009.96 1008.87 1007.64 1006.32 1005.00 1003.74 1002.61 1001.67 1000.95 1000.44 1000.13 999.99 1000.01 1000.17 1000.46 1000.89 1001.45 1002.15 1002.98 1003.94 1004.99 1006.10 1007.22 1008.31 1009.35 1010.30 1011.17 1011.94 1012.64 1013.27 1013.86 1014.41 1014.94 1015.45 1015.95 1016.43 1016.91 1017.41 1017.93 1018.49 1019.09 1019.74
1012.15 1011.22 1010.08 1008.77 1007.35 1005.90 1004.50 1003.24 1002.16 1001.30 1000.66 1000.24 1000.02 999.98 1000.09 1000.36 1000.78 1001.33 1002.02 1002.85 1003.79 1004.81 1005.89 1006.98 1008.04 1009.06 1010.01 1010.87 1011.65 1012.35 1012.99 1013.57 1014.10 1014.59 1015.05 1015.47 1015.89 1016.31 1016.75 1017.25 1017.82 1018.46 1019.17
1013.32 1012.40 1011.24 1009.89 1008.42 1006.93 1005.47 1004.14 1002.99 1002.06 1001.35 1000.86 1000.57 1000.46 1000.53 1000.75 1001.12 1001.62 1002.27 1003.03 1003.90 1004.85 1005.85 1006.87 1007.88 1008.85 1009.76 1010.60 1011.38 1012.08 1012.71 1013.28 1013.80 1014.25 1014.66 1015.04 1015.40 1015.77 1016.18 1016.66 1017.23 1017.91 1018.67
1014.38 1013.48 1012.34 1011.02 1009.58 1008.10 1006.67 1005.35 1004.20 1003.26 1002.52 1001.99 1001.66 1001.50 1001.50 1001.65 1001.94 1002.36 1002.90 1003.55 1004.31 1005.14 1006.02 1006.93 1007.83 1008.71 1009.56 1010.35 1011.09 1011.77 1012.39 1012.95 1013.44 1013.88 1014.26 1014.61 1014.94 1015.28 1015.67 1016.14 1016.72 1017.41 1018.21
1015.35 1014.51 1013.44 1012.19 1010.83 1009.44 1008.10 1006.86 1005.77 1004.87 1004.15 1003.62 1003.26 1003.05 1002.97 1003.03 1003.20 1003.49 1003.89 1004.40 1004.99 1005.66 1006.38 1007.13 1007.89 1008.65 1009.39 1010.10 1010.78 1011.41 1011.99 1012.53 1013.01 1013.43 1013.80 1014.13 1014.45 1014.78 1015.17 1015.64 1016.22 1016.92 1017.74
1016.31 1015.55 1014.57 1013.44 1012.21 1010.96 1009.74 1008.63 1007.64 1006.82 1006.14 1005.62 1005.23 1004.96 1004.81 1004.75 1004.79 1004.93 1005.16 1005.48 1005.89 1006.36 1006.89 1007.46 1008.05 1008.66 1009.26 1009.86 1010.43 1011.00 1011.53 1012.02 1012.47 1012.88 1013.24 1013.58 1013.90 1014.24 1014.64 1015.12 1015.70 1016.40 1017.22
1017.29 1016.62 1015.77 1014.77 1013.69 1012.59 1011.53 1010.55 1009.69 1008.94 1008.32 1007.81 1007.40 1007.07 1006.82 1006.65 1006.55 1006.52 1006.58 1006.71 1006.92 1007.19 1007.52 1007.90 1008.30 1008.73 1009.18 1009.64 1010.10 1010.56 1011.01 1011.45 1011.86 1012.25 1012.60 1012.94 1013.28 1013.64 1014.05 1014.54 1015.12 1015.82 1016.62
1018.29 1017.72 1016.98 1016.12 1015.19 1014.25 1013.34 1012.50 1011.74 1011.07 1010.49 1009.99 1009.54 1009.16 1008.82 1008.53 1008.30 1008.12 1008.02 1007.98 1008.00 1008.09 1008.23 1008.42 1008.64 1008.90 1009.18 1009.48 1009.81 1010.15 1010.51 1010.87 1011.22 1011.57 1011.91 1012.25 1012.59 1012.97 1013.39 1013.89 1014.48 1015.17 1015.95
1019.26 1018.78 1018.15 1017.41 1016.62 1015.81 1015.03 1014.30 1013.63 1013.02 1012.46 1011.95 1011.48 1011.03 1010.62 1010.23 1009.89 1009.60 1009.36 1009.19 1009.06 1009.00 1008.98 1009.01 1009.07 1009.16 1009.28 1009.43 1009.62 1009.83 1010.07 1010.34 1010.62 1010.92 1011.22 1011.55 1011.89 1012.28 1012.71 1013.22 1013.82 1014.50 1015.26
1020.09 1019.69 1019.16 1018.53 1017.84 1017.15 1016.46 1015.81 1015.20 1014.62 1014.08 1013.56 1013.05 1012.56 1012.09 1011.65 1011.23 1010.86 1010.54 1010.27 1010.05 1009.88 1009.74 1009.65 1009.58 1009.53 1009.51 1009.52 1009.57 1009.65 1009.77 1009.93 1010.13 1010.35 1010.62 1010.91 1011.25 1011.63 1012.08 1012.59 1013.19 1013.87 1014.63
1020.70 1020.37 1019.92 1019.38 1018.78 1018.17 1017.55 1016.96 1016.38 1015.82 1015.28 1014.74 1014.22 1013.70 1013.20 1012.73 1012.28 1011.88 1011.52 1011.21 1010.94 1010.70 1010.50 1010.31 1010.15 1009.99 1009.86 1009.75 1009.68 1009.63 1009.64 1009.69 1009.79 1009.94 1010.15 1010.41 1010.72 1011.10 1011.55 1012.07 1012.68 1013.37 1014.13
1021.05 1020.78 1020.40 1019.93 1019.41 1018.86 1018.30 1017.74 1017.18 1016.63 1016.09 1015.55 1015.02 1014.49 1013.99 1013.51 1013.07 1012.66 1012.31 1011.99 1011.70 1011.45 1011.20 1010.97 1010.74 1010.51 1010.29 1010.09 1009.91 1009.76 1009.66 1009.62 1009.63 1009.71 1009.86 1010.07 1010.37 1010.74 1011.19 1011.72 1012.35 1013.05 1013.82
1021.14 1020.93 1020.61 1020.21 1019.76 1019.26 1018.75 1018.22 1017.68 1017.14 1016.60 1016.06 1015.53 1015.02 1014.53 1014.07 1013.65 1013.27 1012.93 1012.63 1012.35 1012.09 1011.83 1011.57 1011.29 1011.02 1010.73 1010.46 1010.20 1009.98 1009.80 1009.68 1009.62 1009.64 1009.74 1009.93 1010.20 1010.57 1011.02 1011.58 1012.22 1012.94 1013.73
1021.03 1020.88 1020.63 1020.31 1019.92 1019.48 1019.01 1018.52 1018.00 1017.48 1016.95 1016.42 1015.90 1015.40 1014.93 1014.50 1014.11 1013.75 1013.44 1013.15 1012.88 1012.61 1012.34 1012.05 1011.75 1011.43 1011.10 1010.78 1010.48 1010.20 1009.98 1009.81 1009.71 1009.70 1009.77 1009.94 1010.21 1010.58 1011.05 1011.62 1012.28 1013.02 1013.83
1020.84 1020.75 1020.57 1020.32 1020.00 1019.63 1019.21 1018.75 1018.27 1017.76 1017.24 1016.73 1016.22 1015.74 1015.29 1014.88 1014.50 1014.16 1013.85 1013.56 1013.27 1012.99 1012.69 1012.37 1012.04 1011.69 1011.34 1010.98 1010.66 1010.36 1010.11 1009.93 1009.82 1009.80 1009.87 1010.04 1010.32 1010.71 1011.20 1011.80 1012.49 1013.25 1014.07
1020.66 1020.63 1020.53 1020.35 1020.10 1019.80 1019.43 1019.02 1018.56 1018.08 1017.58 1017.08 1016.59 1016.12 1015.67 1015.26 1014.88 1014.53 1014.20 1013.87 1013.55 1013.22 1012.88 1012.52 1012.14 1011.76 1011.38 1011.01 1010.67 1010.38 1010.13 1009.96 1009.87 1009.87 1009.96 1010.16 1010.47 1010.88 1011.41 1012.03 1012.75 1013.53 1014.37
1020.56 1020.59 1020.56 1020.45 1020.28 1020.03 1019.72 1019.35 1018.93 1018.47 1017.99 1017.50 1017.02 1016.55 1016.10 1015.67 1015.27 1014.88 1014.50 1014.13 1013.74 1013.34 1012.93 1012.51 1012.08 1011.65 1011.24 1010.86 1010.52 1010.23 1010.01 1009.86 1009.81 1009.84 1009.97 1010.21 1010.55 1011.01 1011.57 1012.22 1012.96 1013.77 1014.62
1020.58 1020.67 1020.69 1020.64 1020.53 1020.33 1020.07 1019.74 1019.35 1018.92 1018.46 1017.98 1017.50 1017.03 1016.57 1016.12 1015.68 1015.25 1014.80 1014.35 1013.88 1013.40 1012.90 1012.40 1011.90 1011.42 1010.97 1010.57 1010.22 1009.94 1009.74 1009.62 1009.60 1009.67 1009.84 1010.12 1010.50 1010.99 1011.58 1012.26 1013.03 1013.85 1014.71
Thickness
5563 5568 5574 5578 5583 5589 5593 5599 5604 5610 5615 5620 5626 5629 5633 5638 5641 5645 5649 5651 5653 5654 5656 5658 5658 5659 5659 5659 5659 5657 5656 5654 5653 5651 5648 5650 5652 5653 5653 5653 5653 5652 5651
5557 5563 5568 5572 5575 5580 5584 5590 5595 5601 5607 5613 5618 5622 5626 5629 5633 5637 5641 5644 5646 5648 5650 5652 5653 5654 5654 5653 5652 5652 5650 5649 5648 5646 5642 5641 5643 5646 5648 5647 5647 5647 5645
5552 5558 5562 5566 5569 5573 5577 5583 5588 5594 5600 5605 5608 5612 5615 5619 5623 5628 5633 5636 5639 5642 5644 5646 5647 5648 5648 5648 5648 5647 5646 5644 5642 5643 5641 5637 5638 5639 5640 5640 5640 5640 5639
5547 5552 5556 5559 5563 5568 5571 5577 5582 5588 5594 5598 5601 5604 5607 5611 5616 5621 5625 5629 5631 5634 5638 5639 5641 5642 5643 5643 5643 5642 5641 5640 5637 5635 5637 5638 5638 5633 5632 5632 5633 5632 5631
5541 5546 5550 5552 5557 5560 5565 5571 5576 5582 5587 5590 5593 5597 5600 5605 5609 5613 5616 5621 5624 5627 5630 5632 5634 5635 5636 5637 5637 5636 5635 5635 5634 5632 5631 5629 5629 5629 5627 5626 5625 5624 5625
5536 5540 5543 5547 5549 5552 5557 5563 5569 5575 5580 5584 5587 5590 5593 5597 5600 5604 5607 5613 5616 5618 5621 5624 5626 5628 5629 5630 5631 5631 5630 5629 5629 5628 5627 5626 5624 5624 5622 5620 5619 5618 5618
5529 5532 5535 5538 5541 5545 5549 5555 5561 5567 5572 5576 5580 5582 5586 5589 5593 5596 5601 5605 5608 5610 5613 5616 5618 5620 5621 5623 5623 5623 5624 5623 5622 5623 5622 5622 5622 5620 5618 5615 5611 5609 5608
5523 5525 5528 5530 5533 5537 5542 5547 5553 5558 5563 5568 5572 5576 5578 5582 5585 5589 5594 5598 5601 5604 5606 5607 5610 5612 5613 5614 5614 5615 5616 5616 5616 5616 5616 5615 5615 5614 5612 5610 5605 5600 5599
5518 5519 5523 5525 5528 5532 5535 5540 5545 5551 5556 5560 5564 5569 5572 5575 5579 5583 5586 5590 5593 5596 5597 5599 5601 5603 5605 5605 5606 5607 5608 5609 5609 5609 5608 5608 5609 5607 5606 5604 5602 5597 5593
5514 5515 5517 5520 5523 5526 5530 5535 5540 5544 5549 5553 5556 5561 5564 5568 5571 5574 5577 5581 5584 5587 5589 5591 5593 5595 5597 5598 5597 5599 5600 5601 5602 5601 5600 5600 5601 5599 5597 5597 5595 5593 5590
5508 5510 5512 5514 5518 5521 5525 5530 5535 5538 5541 5545 5549 5553 5556 5558 5561 5564 5567 5571 5574 5578 5580 5583 5585 5587 5589 5590 5591 5592 5592 5593 5593 5593 5593 5593 5592 5591 5590 5588 5587 5585 5582
5505 5506 5507 5510 5513 5516 5520 5524 5528 5531 5533 5536 5540 5543 5546 5549 5551 5554 5557 5560 5564 5568 5571 5574 5577 5579 5581 5582 5584 5585 5585 5585 5585 5585 5584 5585 5583 5582 5582 5581 5579 5578 5576
5504 5505 5505 5507 5508 5511 5514 5517 5520 5523 5526 5529 5532 5534 5537 5540 5542 5545 5548 5551 5554 5557 5561 5565 5568 5571 5573 5574 5575 5576 5577 5577 5578 5577 5576 5576 5575 5574 5573 5573 5572 5570 5568
5501 5502 5502 5502 5503 5505 5507 5511 5513 5516 5519 5522 5523 5525 5528 5530 5532 5535 5538 5541 5543 5546 5550 5554 5558 5561 5563 5563 5565 5567 5567 5568 5567 5567 5567 5568 5567 5568 5566 5565 5564 5562 5559
5498 5498 5498 5498 5499 5500 5502 5505 5507 5509 5511 5513 5514 5516 5518 5520 5522 5525 5528 5530 5533 5535 5539 5543 5546 5549 5551 5553 5554 5556 5557 5556 5557 5557 5557 5558 5560 5560 5559 5557 5556 5554 5551
5495 5495 5495 5494 5494 5495 5497 5499 5500 5502 5503 5505 5506 5507 5509 5511 5512 5513 5516 5519 5521 5524 5527 5531 5535 5537 5540 5543 5543 5545 5545 5546 5546 5546 5546 5547 5549 5550 5550 5550 5549 5548 5544
5492 5490 5489 5488 5489 5490 5491 5492 5493 5495 5496 5497 5498 5500 5501 5501 5502 5503 5505 5507 5510 5513 5515 5519 5522 5524 5527 5529 5532 5533 5534 5534 5534 5535 5535 5536 5537 5538 5538 5538 5538 5537 5536
5489 5487 5485 5484 5484 5484 5484 5485 5486 5488 5489 5489 5490 5491 5492 5492 5493 5495 5495 5495 5497 5499 5502 5505 5508 5511 5514 5517 5520 5521 5522 5522 5522 5524 5524 5525 5525 5526 5526 5526 5524 5523 5524
5487 5484 5482 5480 5480 5479 5479 5480 5480 5481 5482 5482 5483 5483 5483 5483 5484 5484 5483 5484 5485 5486 5489 5492 5495 5498 5502 5505 5507 5509 5510 5510 5510 5511 5512 5513 5513 5514 5514 5514 5511 5510 5510
5484 5481 5479 5477 5476 5475 5475 5475 5474 5474 5474 5474 5475 5475 5475 5474 5474 5473 5473 5473 5473 5475 5477 5479 5482 5485 5488 5491 5494 5496 5499 5499 5499 5499 5501 5501 5502 5502 5501 5501 5500 5498 5498
5482 5479 5476 5474 5472 5471 5471 5470 5469 5468 5467 5467 5467 5467 5466 5466 5465 5464 5463 5463 5463 5464 5465 5468 5470 5472 5475 5478 5481 5482 5484 5485 5486 5486 5487 5488 5489 5489 5489 5489 5489 5489 5487
5479 5476 5473 5470 5469 5467 5466 5465 5463 5462 5461 5459 5459 5458 5457 5457 5457 5455 5454 5454 5453 5454 5454 5456 5457 5460 5462 5464 5466 5468 5470 5471 5472 5473 5475 5476 5476 5476 5476 5475 5475 5475 5474
5475 5472 5469 5466 5464 5462 5460 5458 5456 5455 5453 5452 5450 5450 5450 5449 5449 5447 5446 5445 5445 5444 5444 5445 5446 5448 5449 5450 5453 5456 5457 5458 5458 5459 5461 5462 5462 5463 5462 5461 5462 5461 5459
5471 5468 5465 5462 5459 5456 5453 5451 5448 5446 5445 5443 5442 5442 5441 5441 5440 5439 5437 5436 5435 5435 5434 5434 5434 5435 5436 5438 5440 5442 5444 5445 5445 5446 5447 5447 5447 5448 5448 5448 5447 5447 5447
5466 5463 5460 5457 5453 5450 5447 5444 5441 5438 5436 5435 5434 5433 5432 5430 5429 5428 5426 5425 5425 5424 5424 5424 5424 5424 5426 5427 5428 5429 5431 5433 5434 5434 5433 5432 5432 5432 5432 5433 5434 5434 5434
5460 5457 5454 5451 5447 5443 5440 5437 5433 5430 5428 5427 5425 5424 5422 5420 5419 5418 5417 5417 5416 5416 5415 5414 5414 5415 5415 5416 5417 5418 5419 5421 5422 5422 5421 5420 5419 5420 5420 5421 5421 5421 5421